DW0275 Weather Reports


Display with metric or nautical units.
time (UTC)temp
F
wind
direction
speed
MPH
gust
MPH
rain 1hr
in
rain 24hr
in
rain mn
in
humidity
%
barometer
mb
20260508231322 83 141 4.0 7.0 0.00 0.00 0.00 78 1013.4
20260508230830 83 146 2.0 6.0 0.00 0.00 0.00 78 1013.5
20260508230354 83 85 2.0 8.0 0.00 0.00 0.00 78 1013.5
20260508225843 83 109 5.0 8.0 0.00 0.00 0.00 77 1013.3
20260508225345 84 155 3.0 5.0 0.00 0.00 0.00 77 1013.3
20260508224839 84 105 3.0 9.0 0.00 0.00 0.00 77 1013.3
20260508224329 84 70 4.0 9.0 0.00 0.00 0.00 76 1013.3
20260508223822 84 120 5.0 9.0 0.00 0.00 0.00 76 1013.2
20260508223346 84 150 4.0 10.0 0.00 0.00 0.00 76 1013.1
20260508222839 84 122 4.0 10.0 0.00 0.00 0.00 75 1013.2
20260508222353 85 129 6.0 9.0 0.00 0.00 0.00 76 1013.1
20260508221852 85 131 4.0 9.0 0.00 0.00 0.00 75 1013.1
20260508221326 85 143 4.0 9.0 0.00 0.00 0.00 75 1013.1
20260508220848 85 57 4.0 9.0 0.00 0.00 0.00 74 1013.1
20260508220319 85 72 5.0 10.0 0.00 0.00 0.00 73 1013.1
20260508215841 86 132 4.0 10.0 0.00 0.00 0.00 72 1013.2
20260508215330 86 88 4.0 8.0 0.00 0.00 0.00 71 1013.2
20260508214846 85 103 4.0 8.0 0.00 0.00 0.00 72 1013.2
20260508214320 85 96 4.0 8.0 0.00 0.00 0.00 71 1013.2
20260508213820 85 107 4.0 8.0 0.00 0.00 0.00 69 1013.3
20260508213334 86 82 4.0 9.0 0.00 0.00 0.00 70 1013.3
20260508212820 86 89 4.0 9.0 0.00 0.00 0.00 68 1013.3
20260508212331 86 65 5.0 10.0 0.00 0.00 0.00 69 1013.3
20260508211824 86 57 4.0 10.0 0.00 0.00 0.00 67 1013.3
20260508211336 86 100 4.0 8.0 0.00 0.00 0.00 67 1013.3
20260508210830 86 71 4.0 9.0 0.00 0.00 0.00 66 1013.3
20260508210324 86 76 4.0 9.0 0.00 0.00 0.00 67 1013.5
20260508205833 87 51 4.0 11.0 0.00 0.00 0.00 66 1013.4
20260508205327 87 136 3.0 11.0 0.00 0.00 0.00 64 1013.3
20260508204841 87 93 3.0 10.0 0.00 0.00 0.00 66 1013.3
20260508204354 87 70 5.0 10.0 0.00 0.00 0.00 65 1013.4
20260508203825 86 134 6.0 11.0 0.00 0.00 0.00 63 1013.4
20260508203332 87 117 6.0 11.0 0.00 0.00 0.00 66 1013.5
20260508202825 87 189 6.0 10.0 0.00 0.00 0.00 67 1013.4
20260508202346 87 109 4.0 10.0 0.00 0.00 0.00 67 1013.7
20260508201830 88 140 6.0 10.0 0.00 0.00 0.00 67 1013.7
20260508201324 88 127 4.0 8.0 0.00 0.00 0.00 70 1013.7
20260508200834 88 28 4.0 8.0 0.00 0.00 0.00 67 1013.8
20260508200345 88 72 4.0 9.0 0.00 0.00 0.00 68 1013.9
20260508195837 88 139 3.0 10.0 0.00 0.00 0.00 69 1013.9
20260508195402 87 131 3.0 13.0 0.00 0.00 0.00 69 1014.0
20260508194825 87 126 4.0 13.0 0.00 0.00 0.00 69 1014.1
20260508194334 88 145 4.0 8.0 0.00 0.00 0.00 70 1014.2
20260508193828 87 102 3.0 10.0 0.00 0.00 0.00 70 1014.2
20260508193320 87 85 5.0 11.0 0.00 0.00 0.00 69 1014.3
20260508192835 87 30 6.0 11.0 0.00 0.00 0.00 71 1014.3
20260508192330 88 234 5.0 8.0 0.00 0.00 0.00 69 1014.3
20260508191829 88 130 3.0 11.0 0.00 0.00 0.00 70 1014.3
20260508191321 88 134 5.0 12.0 0.00 0.00 0.00 70 1014.4
20260508190835 88 67 4.0 12.0 0.00 0.00 0.00 70 1014.5
20260508190328 88 120 5.0 12.0 0.00 0.00 0.00 71 1014.6
20260508185843 88 105 6.0 12.0 0.00 0.00 0.00 71 1014.5
20260508185328 87 120 4.0 11.0 0.00 0.00 0.00 71 1014.7
20260508184835 87 354 4.0 11.0 0.00 0.00 0.00 72 1014.8
20260508184346 87 27 3.0 10.0 0.00 0.00 0.00 72 1014.8
20260508183819 88 13 5.0 10.0 0.00 0.00 0.00 72 1014.8
20260508183340 88 54 5.0 8.0 0.00 0.00 0.00 71 1014.8
20260508182834 88 71 5.0 10.0 0.00 0.00 0.00 72 1014.9
20260508182324 87 18 5.0 10.0 0.00 0.00 0.00 72 1015.0
20260508181828 88 163 5.0 9.0 0.00 0.00 0.00 71 1015.0
20260508181342 88 102 3.0 7.0 0.00 0.00 0.00 70 1015.0
20260508180830 88 114 4.0 7.0 0.00 0.00 0.00 71 1015.1
20260508180343 88 116 4.0 10.0 0.00 0.00 0.00 70 1015.1
20260508175852 90 115 3.0 10.0 0.00 0.00 0.00 67 1015.3
20260508175341 90 116 3.0 6.0 0.00 0.00 0.00 69 1015.3
20260508174832 90 70 1.0 5.0 0.00 0.00 0.00 60 1015.4
20260508174346 91 54 2.0 5.0 0.00 0.00 0.00 59 1015.2
20260508173834 92 326 1.0 3.0 0.00 0.00 0.00 59 1015.3
20260508173328 92 31 1.0 2.0 0.00 0.00 0.00 63 1015.3
20260508172821 92 290 0.0 2.0 0.00 0.00 0.00 60 1015.4
20260508172323 91 290 0.0 1.0 0.00 0.00 0.00 63 1015.5
20260508171835 91 23 0.0 4.0 0.00 0.00 0.00 66 1015.6
20260508171329 91 72 1.0 4.0 0.00 0.00 0.00 63 1015.6
20260508170819 91 19 1.0 2.0 0.00 0.00 0.00 61 1015.8
20260508170331 91 46 0.0 0.0 0.00 0.00 0.00 65 1015.8
20260508165847 91 285 0.0 1.0 0.00 0.00 0.00 63 1016.0
20260508165330 90 285 0.0 3.0 0.00 0.00 0.00 64 1016.1
20260508164841 89 13 1.0 4.0 0.00 0.00 0.00 65 1016.1
20260508164330 90 1 2.0 4.0 0.00 0.00 0.00 64 1016.2
20260508163828 90 348 1.0 3.0 0.00 0.00 0.00 65 1016.3
20260508163337 89 115 0.0 4.0 0.00 0.00 0.00 62 1016.4
20260508162849 89 111 2.0 4.0 0.00 0.00 0.00 60 1016.4
20260508162321 89 148 1.0 4.0 0.00 0.00 0.00 62 1016.4
20260508161838 88 8 1.0 5.0 0.00 0.00 0.00 65 1016.4
20260508161349 88 68 1.0 5.0 0.00 0.00 0.00 65 1016.5
20260508160820 88 326 2.0 5.0 0.00 0.00 0.00 67 1016.4
20260508160341 87 136 1.0 5.0 0.00 0.00 0.00 69 1016.4
20260508155859 88 27 2.0 5.0 0.00 0.00 0.00 70 1016.6
20260508155328 87 36 1.0 5.0 0.00 0.00 0.00 67 1016.6
20260508154841 88 349 2.0 5.0 0.00 0.00 0.00 70 1016.7
20260508154322 87 148 1.0 5.0 0.00 0.00 0.00 70 1016.8
20260508153842 87 335 2.0 4.0 0.00 0.00 0.00 70 1016.8
20260508153327 86 53 2.0 6.0 0.00 0.00 0.00 71 1016.8
20260508152838 87 319 3.0 6.0 0.00 0.00 0.00 70 1016.9
20260508152332 86 314 1.0 7.0 0.00 0.00 0.00 73 1017.0
20260508151826 86 34 2.0 7.0 0.00 0.00 0.00 74 1016.9
20260508151348 86 47 2.0 5.0 0.00 0.00 0.00 72 1016.9
20260508150840 87 37 2.0 5.0 0.00 0.00 0.00 71 1017.0
20260508150336 86 323 1.0 7.0 0.00 0.00 0.00 74 1016.8
20260508145829 85 335 3.0 7.0 0.00 0.00 0.00 74 1016.9
20260508145322 85 26 5.0 7.0 0.00 0.00 0.00 73 1016.9
20260508144843 85 32 2.0 8.0 0.00 0.00 0.00 75 1016.8
20260508144410 84 32 4.0 8.0 0.00 0.00 0.00 75 1016.8
20260508143857 85 23 4.0 8.0 0.00 0.00 0.00 73 1016.7
20260508143330 85 352 2.0 8.0 0.00 0.00 0.00 75 1016.8
20260508142844 85 20 2.0 5.0 0.00 0.00 0.00 74 1016.8
20260508142322 85 295 2.0 7.0 0.00 0.00 0.00 74 1016.8
20260508141831 84 9 2.0 8.0 0.00 0.00 0.00 75 1016.9
20260508141340 84 343 3.0 8.0 0.00 0.00 0.00 75 1016.8
20260508140851 84 319 4.0 8.0 0.00 0.00 0.00 76 1016.8
20260508140322 83 18 3.0 6.0 0.00 0.00 0.00 76 1016.7
20260508135822 83 345 4.0 8.0 0.00 0.00 0.00 76 1016.7
20260508135334 83 347 4.0 8.0 0.00 0.00 0.00 76 1016.7
20260508134825 83 348 3.0 8.0 0.00 0.00 0.00 77 1016.7
20260508134334 83 340 3.0 6.0 0.00 0.00 0.00 76 1016.7
20260508133844 83 24 4.0 7.0 0.00 0.00 0.00 76 1016.8
20260508133349 82 334 3.0 7.0 0.00 0.00 0.00 76 1016.7
20260508132842 83 338 4.0 6.0 0.00 0.00 0.00 76 1016.8
20260508132331 82 316 3.0 6.0 0.00 0.00 0.00 76 1016.8
20260508131830 82 337 2.0 5.0 0.00 0.00 0.00 77 1016.7
20260508131328 81 299 1.0 6.0 0.00 0.00 0.00 77 1016.7
20260508130848 81 326 3.0 6.0 0.00 0.00 0.00 77 1016.7
20260508130357 80 345 2.0 5.0 0.00 0.00 0.00 77 1016.5
20260508125836 80 8 2.0 6.0 0.00 0.00 0.00 77 1016.5
20260508125327 79 347 1.0 7.0 0.00 0.00 0.00 77 1016.4
20260508124822 79 338 3.0 7.0 0.00 0.00 0.00 77 1016.5
20260508124323 79 358 3.0 5.0 0.00 0.00 0.00 77 1016.5
20260508123845 79 341 1.0 5.0 0.00 0.00 0.00 77 1016.5
20260508123358 78 337 1.0 5.0 0.00 0.00 0.00 78 1016.5
20260508122847 78 352 1.0 4.0 0.00 0.00 0.00 77 1016.5
20260508122400 78 25 0.0 2.0 0.00 0.00 0.00 78 1016.5
20260508121844 77 25 1.0 3.0 0.00 0.00 0.00 78 1016.5
20260508121336 77 323 0.0 3.0 0.00 0.00 0.00 78 1016.4
20260508120838 77 353 1.0 3.0 0.00 0.00 0.00 78 1016.4
20260508120328 76 4 1.0 4.0 0.00 0.00 0.00 78 1016.3
20260508115827 76 350 2.0 4.0 0.00 0.00 0.00 79 1016.2
20260508115341 75 14 1.0 3.0 0.00 0.00 0.00 79 1016.1
20260508114906 75 354 1.0 2.0 0.00 0.00 0.00 79 1016.0
20260508114331 75 356 0.0 2.0 0.00 0.00 0.00 79 1016.0
20260508113824 75 12 1.0 2.0 0.00 0.00 0.00 80 1016.0
20260508113348 74 1 0.0 2.0 0.00 0.00 0.00 80 1015.9
20260508112821 73 349 0.0 0.0 0.00 0.00 0.00 81 1016.0
20260508112334 73 349 0.0 1.0 0.00 0.00 0.00 82 1015.9
20260508111851 72 21 0.0 1.0 0.00 0.00 0.00 82 1015.9
20260508111344 72 22 0.0 0.0 0.00 0.00 0.00 83 1015.7
20260508110844 72 22 0.0 0.0 0.00 0.00 0.00 83 1015.6
20260508110337 71 22 0.0 0.0 0.00 0.00 0.00 83 1015.5
20260508105822 71 22 0.0 0.0 0.00 0.00 0.00 83 1015.4
20260508105333 71 22 0.0 0.0 0.00 0.00 0.00 83 1015.3
20260508104827 71 22 0.0 1.0 0.00 0.00 0.00 83 1015.1
20260508104350 72 22 0.0 1.0 0.00 0.00 0.00 83 1015.1
20260508103832 71 355 0.0 1.0 0.00 0.00 0.00 83 1015.1
20260508103344 71 334 0.0 1.0 0.00 0.00 0.00 83 1015.0
20260508102831 71 165 0.0 1.0 0.00 0.00 0.00 84 1014.9
20260508102325 71 200 0.0 0.0 0.00 0.00 0.00 84 1014.9
20260508101837 71 200 0.0 0.0 0.00 0.00 0.00 84 1014.9
20260508101342 71 200 0.0 0.0 0.00 0.00 0.00 84 1014.8
20260508100829 71 200 0.0 0.0 0.00 0.00 0.00 84 1014.8
20260508100339 71 200 0.0 0.0 0.00 0.00 0.00 84 1014.7
20260508095842 71 200 0.0 0.0 0.00 0.00 0.00 84 1014.7
20260508095408 71 200 0.0 0.0 0.00 0.00 0.00 84 1014.6
20260508094858 71 200 0.0 0.0 0.00 0.00 0.00 84 1014.6
20260508094337 71 200 0.0 0.0 0.00 0.00 0.00 84 1014.5
20260508093829 71 200 0.0 0.0 0.00 0.00 0.00 84 1014.5
20260508093325 71 200 0.0 0.0 0.00 0.00 0.00 84 1014.6
20260508092846 71 200 0.0 0.0 0.00 0.00 0.00 84 1014.6
20260508092340 71 200 0.0 0.0 0.00 0.00 0.00 84 1014.6
20260508091825 71 200 0.0 0.0 0.00 0.00 0.00 84 1014.5
20260508091335 71 200 0.0 0.0 0.00 0.00 0.00 85 1014.6
20260508090828 71 200 0.0 0.0 0.00 0.00 0.00 85 1014.6
20260508090343 71 200 0.0 0.0 0.00 0.00 0.00 85 1014.5
20260508085856 71 200 0.0 0.0 0.00 0.00 0.00 85 1014.7
20260508085326 72 200 0.0 0.0 0.00 0.00 0.00 85 1014.6
20260508084834 72 200 0.0 0.0 0.00 0.00 0.00 85 1014.6
20260508084327 72 200 0.0 0.0 0.00 0.00 0.00 85 1014.5
20260508083849 72 200 0.0 0.0 0.00 0.00 0.00 85 1014.5
20260508083333 72 200 0.0 0.0 0.00 0.00 0.00 85 1014.5
20260508082845 72 200 0.0 0.0 0.00 0.00 0.00 85 1014.5
20260508082355 72 200 0.0 0.0 0.00 0.00 0.00 85 1014.5
20260508081844 72 200 0.0 0.0 0.00 0.00 0.00 85 1014.3
20260508081355 73 200 0.0 0.0 0.00 0.00 0.00 85 1014.5
20260508080846 73 200 0.0 0.0 0.00 0.00 0.00 85 1014.5
20260508080355 73 200 0.0 0.0 0.00 0.00 0.00 85 1014.6
20260508075848 73 200 0.0 0.0 0.00 0.00 0.00 85 1014.5
20260508075328 73 200 0.0 0.0 0.00 0.00 0.00 85 1014.5
20260508074840 73 200 0.0 0.0 0.00 0.00 0.00 85 1014.5
20260508074332 73 200 0.0 0.0 0.00 0.00 0.00 85 1014.5
20260508073823 73 200 0.0 0.0 0.00 0.00 0.00 85 1014.5
20260508073333 73 200 0.0 0.0 0.00 0.00 0.00 86 1014.5
20260508072908 73 200 0.0 0.0 0.00 0.00 0.00 86 1014.5
20260508072343 73 200 0.0 0.0 0.00 0.00 0.00 86 1014.5
20260508071827 74 200 0.0 0.0 0.00 0.00 0.00 86 1014.4
20260508071334 74 200 0.0 0.0 0.00 0.00 0.00 87 1014.5
20260508070826 74 200 0.0 0.0 0.00 0.00 0.00 88 1014.5
20260508070346 74 200 0.0 0.0 0.00 0.00 0.00 88 1014.6
20260508065840 74 200 0.0 0.0 0.00 0.00 0.00 88 1014.7
20260508065334 74 200 0.0 0.0 0.00 0.00 0.00 88 1014.6
20260508064826 74 200 0.0 0.0 0.00 0.00 0.00 88 1014.5
20260508064335 74 200 0.0 0.0 0.00 0.00 0.00 87 1014.6
20260508063826 75 200 0.0 0.0 0.00 0.00 0.00 87 1014.7
20260508063324 75 200 0.0 0.0 0.00 0.00 0.00 87 1014.8
20260508062824 75 200 0.0 0.0 0.00 0.00 0.00 87 1014.8
20260508062335 75 154 0.0 0.0 0.00 0.00 0.00 87 1014.9
20260508061834 75 154 0.0 0.0 0.00 0.00 0.00 87 1015.0
20260508061329 75 154 0.0 0.0 0.00 0.00 0.00 87 1015.0
20260508060823 75 154 0.0 0.0 0.00 0.00 0.00 87 1015.1
20260508060338 75 154 0.0 0.0 0.00 0.00 0.00 87 1015.1
20260508055831 75 154 0.0 0.0 0.00 0.00 0.00 87 1015.0
20260508055342 75 154 0.0 0.0 0.00 0.00 0.00 86 1015.1
20260508054829 75 154 0.0 0.0 0.00 0.00 0.00 86 1015.0
20260508054321 75 154 0.0 0.0 0.00 0.00 0.00 86 1015.1
20260508053906 75 154 0.0 0.0 0.00 0.00 0.00 86 1015.1
20260508053336 75 154 0.0 0.0 0.00 0.00 0.00 85 1015.2
20260508052821 76 155 0.0 0.0 0.00 0.00 0.00 85 1015.2
20260508052330 76 155 0.0 0.0 0.00 0.00 0.00 85 1015.3
20260508051820 76 155 0.0 0.0 0.00 0.00 0.00 84 1015.3
20260508051341 76 155 0.0 0.0 0.00 0.00 0.00 84 1015.2
20260508050854 76 155 0.0 0.0 0.00 0.00 0.00 84 1015.4
20260508050340 77 155 0.0 0.0 0.00 0.00 0.00 84 1015.4
20260508045831 77 155 0.0 0.0 0.00 0.00 0.00 83 1015.4
20260508045323 77 155 0.0 0.0 0.00 0.00 0.00 82 1015.3
20260508044834 78 155 0.0 0.0 0.00 0.00 0.00 82 1015.2
20260508044324 78 155 0.0 0.0 0.00 0.00 0.00 81 1015.2
20260508043832 78 155 0.0 0.0 0.00 0.00 0.00 81 1015.2
20260508043343 78 155 0.0 1.0 0.00 0.00 0.00 81 1015.3
20260508042909 79 155 0.0 1.0 0.00 0.00 0.00 81 1015.3
20260508042332 79 141 0.0 1.0 0.00 0.00 0.00 81 1015.4
20260508041837 79 141 0.0 1.0 0.00 0.00 0.00 81 1015.3
20260508041346 79 141 0.0 2.0 0.00 0.00 0.00 80 1015.3
20260508040913 79 140 0.0 2.0 0.00 0.00 0.00 80 1015.3
20260508040320 79 133 0.0 2.0 0.00 0.00 0.00 80 1015.3
20260508035836 79 143 1.0 2.0 0.00 0.00 0.00 80 1015.3
20260508035341 80 151 0.0 2.0 0.00 0.00 0.00 80 1015.4
20260508034831 80 154 0.0 1.0 0.00 0.00 0.00 80 1015.5
20260508034407 80 155 0.0 2.0 0.00 0.00 0.00 80 1015.5
20260508033820 80 158 1.0 3.0 0.00 0.00 0.00 80 1015.6
20260508033344 80 171 0.0 3.0 0.00 0.00 0.00 80 1015.5
20260508032857 80 149 1.0 4.0 0.00 0.00 0.00 79 1015.5
20260508032325 80 136 1.0 4.0 0.00 0.00 0.00 79 1015.4
20260508031848 80 149 1.0 3.0 0.00 0.00 0.00 79 1015.3
20260508031337 80 141 1.0 3.0 0.00 0.00 0.00 79 1015.4
20260508030829 80 148 0.0 3.0 0.00 0.00 0.00 78 1015.4
20260508030342 80 131 1.0 3.0 0.00 0.00 0.00 78 1015.3
20260508025823 80 134 1.0 3.0 0.00 0.00 0.00 78 1015.3
20260508025349 80 136 1.0 3.0 0.00 0.00 0.00 78 1015.2
20260508024820 81 136 1.0 4.0 0.00 0.00 0.00 78 1015.3
20260508024342 81 136 2.0 5.0 0.00 0.00 0.00 78 1015.3
20260508023836 81 143 1.0 5.0 0.00 0.00 0.00 78 1015.3
20260508023335 81 138 2.0 5.0 0.00 0.00 0.00 78 1015.4
20260508022827 81 153 2.0 5.0 0.00 0.00 0.00 77 1015.3
20260508022347 81 130 2.0 5.0 0.00 0.00 0.00 77 1015.2
20260508021831 81 134 2.0 4.0 0.00 0.00 0.00 77 1015.3
20260508021322 81 146 2.0 6.0 0.00 0.00 0.00 77 1015.3
20260508020834 81 115 1.0 6.0 0.00 0.00 0.00 77 1015.3
20260508020328 81 139 2.0 5.0 0.00 0.00 0.00 77 1015.2
20260508015821 81 142 1.0 5.0 0.00 0.00 0.00 77 1015.2
20260508015324 81 150 2.0 5.0 0.00 0.00 0.00 76 1015.2
20260508014846 81 114 2.0 5.0 0.00 0.00 0.00 76 1015.2
20260508014321 81 145 1.0 4.0 0.00 0.00 0.00 76 1015.1
20260508013828 81 129 2.0 4.0 0.00 0.00 0.00 76 1015.2
20260508013351 81 124 2.0 4.0 0.00 0.00 0.00 75 1015.2
20260508012820 82 131 2.0 4.0 0.00 0.00 0.00 75 1015.2
20260508012342 82 144 1.0 4.0 0.00 0.00 0.00 74 1015.3
20260508011837 82 136 2.0 5.0 0.00 0.00 0.00 74 1015.3
20260508011348 82 159 2.0 5.0 0.00 0.00 0.00 74 1015.2
20260508010833 82 124 3.0 5.0 0.00 0.00 0.00 74 1015.2
20260508010347 82 123 3.0 5.0 0.00 0.00 0.00 74 1015.2
20260508005831 82 117 1.0 4.0 0.00 0.00 0.00 73 1015.2
20260508005322 82 139 1.0 4.0 0.00 0.00 0.00 73 1015.2
20260508004832 82 124 1.0 5.0 0.00 0.00 0.00 72 1015.2
20260508004344 82 152 2.0 5.0 0.00 0.00 0.00 72 1015.2
20260508003857 83 148 2.0 5.0 0.00 0.00 0.00 72 1015.2
20260508003329 83 139 2.0 5.0 0.00 0.00 0.00 71 1015.3
20260508002842 83 131 3.0 5.0 0.00 0.00 0.00 72 1015.2
20260508002324 83 155 1.0 6.0 0.00 0.00 0.00 72 1015.1
20260508001829 83 124 3.0 5.0 0.00 0.00 0.00 71 1015.0
20260508001320 83 123 3.0 5.0 0.00 0.00 0.00 71 1015.0
20260508000850 83 139 1.0 4.0 0.00 0.00 0.00 71 1015.0
20260508000322 83 134 2.0 8.0 0.00 0.00 0.00 70 1015.0
20260507235831 83 150 3.0 8.0 0.00 0.00 0.00 70 1014.8
20260507235324 84 127 5.0 8.0 0.00 0.00 0.00 70 1014.8
20260507234839 84 133 5.0 7.0 0.00 0.00 0.00 69 1014.7
20260507234345 84 129 3.0 7.0 0.00 0.00 0.00 70 1014.7
20260507233839 84 136 2.0 7.0 0.00 0.00 0.00 68 1014.6
20260507233328 84 119 2.0 6.0 0.00 0.00 0.00 69 1014.5
20260507232822 84 98 3.0 8.0 0.00 0.00 0.00 69 1014.3
20260507232345 84 126 5.0 9.0 0.00 0.00 0.00 69 1014.4
20260507231828 84 146 5.0 10.0 0.00 0.00 0.00 69 1014.2